| time (UTC) | temp F | wind direction | speed MPH | gust MPH | rain 1hr in | rain 24hr in | rain mn in | humidity % | barometer mb |
| 20260903224551 | 71 | 98 | 7.0 | 14.0 | 0.00 | 0.00 | 0.00 | 76 | 1011.2 |
| 20260903223048 | 71 | 69 | 6.0 | 12.0 | 0.00 | 0.00 | 0.00 | 76 | 1011.3 |
| 20260903221557 | 71 | 49 | 7.0 | 14.0 | 0.00 | 0.00 | 0.00 | 76 | 1011.2 |
| 20260903220056 | 70 | 76 | 7.0 | 17.0 | 0.00 | 0.00 | 0.00 | 78 | 1011.1 |
| 20260903214552 | 69 | 53 | 6.0 | 13.0 | 0.00 | 0.00 | 0.00 | 83 | 1011.2 |
| 20260903213052 | 69 | 51 | 10.0 | 16.0 | 0.00 | 0.00 | 0.00 | 84 | 1011.0 |
| 20260903211557 | 69 | 42 | 8.0 | 15.0 | 0.00 | 0.00 | 0.00 | 86 | 1011.2 |
| 20260903210108 | 69 | 50 | 9.0 | 17.0 | 0.00 | 0.00 | 0.00 | 86 | 1011.2 |
| 20260903204608 | 70 | 54 | 9.0 | 20.0 | 0.00 | 0.00 | 0.00 | 84 | 1011.4 |
| 20260903203046 | 70 | 65 | 9.0 | 17.0 | 0.00 | 0.00 | 0.00 | 83 | 1011.2 |
| 20260903201556 | 70 | 32 | 9.0 | 16.0 | 0.00 | 0.00 | 0.00 | 83 | 1011.3 |
| 20260903200101 | 71 | 57 | 8.0 | 15.0 | 0.00 | 0.00 | 0.00 | 82 | 1011.2 |
| 20260903194549 | 71 | 58 | 8.0 | 14.0 | 0.00 | 0.00 | 0.00 | 81 | 1011.2 |
| 20260903193055 | 71 | 74 | 8.0 | 16.0 | 0.00 | 0.00 | 0.00 | 81 | 1011.2 |
| 20260903191555 | 72 | 51 | 8.0 | 17.0 | 0.00 | 0.00 | 0.00 | 81 | 1011.4 |
| 20260903190055 | 71 | 47 | 10.0 | 16.0 | 0.00 | 0.00 | 0.00 | 80 | 1011.5 |
| 20260903184555 | 72 | 67 | 8.0 | 15.0 | 0.00 | 0.00 | 0.00 | 80 | 1011.9 |
| 20260903183055 | 74 | 65 | 7.0 | 17.0 | 0.00 | 0.00 | 0.00 | 72 | 1012.0 |
| 20260903181556 | 73 | 80 | 10.0 | 20.0 | 0.00 | 0.00 | 0.00 | 67 | 1011.9 |
| 20260903180059 | 73 | 82 | 7.0 | 17.0 | 0.00 | 0.00 | 0.00 | 69 | 1011.9 |
| 20260903174552 | 73 | 86 | 10.0 | 15.0 | 0.00 | 0.00 | 0.00 | 71 | 1012.1 |
| 20260903173046 | 73 | 99 | 11.0 | 16.0 | 0.00 | 0.00 | 0.00 | 72 | 1012.3 |
| 20260903171557 | 73 | 109 | 11.0 | 17.0 | 0.00 | 0.00 | 0.00 | 71 | 1012.2 |
| 20260903170056 | 74 | 57 | 8.0 | 15.0 | 0.00 | 0.00 | 0.00 | 70 | 1012.4 |
| 20260903164553 | 73 | 107 | 9.0 | 16.0 | 0.00 | 0.00 | 0.00 | 71 | 1012.7 |
| 20260903163048 | 72 | 98 | 5.0 | 13.0 | 0.00 | 0.00 | 0.00 | 76 | 1012.8 |
| 20260903161546 | 71 | 51 | 4.0 | 12.0 | 0.00 | 0.00 | 0.00 | 83 | 1012.6 |
| 20260903160106 | 70 | 42 | 9.0 | 13.0 | 0.00 | 0.00 | 0.00 | 86 | 1012.7 |
| 20260903154548 | 70 | 45 | 6.0 | 14.0 | 0.00 | 0.00 | 0.00 | 88 | 1012.7 |
| 20260903153045 | 70 | 54 | 6.0 | 15.0 | 0.00 | 0.00 | 0.00 | 88 | 1012.5 |
| 20260903151556 | 71 | 49 | 5.0 | 11.0 | 0.00 | 0.00 | 0.00 | 86 | 1012.7 |
| 20260903150107 | 71 | 56 | 7.0 | 12.0 | 0.00 | 0.00 | 0.00 | 82 | 1012.8 |
| 20260903144555 | 71 | 28 | 3.0 | 9.0 | 0.00 | 0.00 | 0.00 | 86 | 1012.8 |
| 20260903143048 | 71 | 65 | 3.0 | 8.0 | 0.00 | 0.00 | 0.00 | 86 | 1012.7 |
| 20260903141555 | 70 | 0 | 0.0 | 1.0 | 0.00 | 0.00 | 0.00 | 88 | 1013.0 |
| 20260903140109 | 69 | 0 | 0.0 | 0.0 | 0.00 | 0.00 | 0.00 | 89 | 1013.0 |
| 20260903134554 | 69 | 0 | 0.0 | 0.0 | 0.00 | 0.00 | 0.00 | 91 | 1013.1 |
| 20260903133106 | 68 | 0 | 0.0 | 0.0 | 0.00 | 0.00 | 0.00 | 93 | 1013.2 |
| 20260903131556 | 67 | 0 | 0.0 | 0.0 | 0.00 | 0.00 | 0.00 | 93 | 1013.0 |
| 20260903130055 | 67 | 0 | 0.0 | 0.0 | 0.00 | 0.00 | 0.00 | 94 | 1013.1 |
| 20260903124553 | 66 | 0 | 0.0 | 0.0 | 0.00 | 0.00 | 0.00 | 95 | 1013.0 |
| 20260903123055 | 66 | 0 | 0.0 | 0.0 | 0.00 | 0.00 | 0.00 | 95 | 1012.8 |
| 20260903121554 | 66 | 0 | 0.0 | 0.0 | 0.00 | 0.00 | 0.00 | 98 | 1012.9 |
| 20260903114556 | 64 | 0 | 0.0 | 0.0 | 0.00 | 0.00 | 0.00 | 98 | 1012.7 |
| 20260903113056 | 63 | 0 | 0.0 | 0.0 | 0.00 | 0.00 | 0.00 | 98 | 1012.5 |
| 20260903111556 | 63 | 0 | 0.0 | 0.0 | 0.00 | 0.00 | 0.00 | 97 | 1012.7 |
| 20260903110048 | 63 | 0 | 0.0 | 0.0 | 0.00 | 0.00 | 0.00 | 98 | 1012.7 |
| 20260903104558 | 64 | 0 | 0.0 | 0.0 | 0.00 | 0.00 | 0.00 | 98 | 1012.5 |
| 20260903103056 | 64 | 0 | 0.0 | 0.0 | 0.00 | 0.00 | 0.00 | 98 | 1012.4 |
| 20260903101555 | 64 | 0 | 0.0 | 0.0 | 0.00 | 0.00 | 0.00 | 98 | 1012.4 |
| 20260903100049 | 64 | 0 | 0.0 | 0.0 | 0.00 | 0.00 | 0.00 | 98 | 1012.4 |
| 20260903094601 | 64 | 0 | 0.0 | 0.0 | 0.00 | 0.00 | 0.00 | 98 | 1012.3 |
| 20260903093119 | 64 | 0 | 0.0 | 0.0 | 0.00 | 0.00 | 0.00 | 97 | 1012.2 |
| 20260903091552 | 64 | 0 | 0.0 | 0.0 | 0.00 | 0.00 | 0.00 | 98 | 1012.3 |
| 20260903090045 | 63 | 0 | 0.0 | 0.0 | 0.00 | 0.00 | 0.00 | 98 | 1012.4 |
| 20260903084556 | 63 | 0 | 0.0 | 0.0 | 0.00 | 0.00 | 0.00 | 96 | 1012.4 |
| 20260903083056 | 63 | 0 | 0.0 | 0.0 | 0.00 | 0.00 | 0.00 | 97 | 1012.5 |
| 20260903081557 | 63 | 0 | 0.0 | 0.0 | 0.00 | 0.00 | 0.00 | 96 | 1012.4 |
| 20260903080105 | 64 | 0 | 0.0 | 0.0 | 0.00 | 0.00 | 0.00 | 97 | 1012.5 |
| 20260903074612 | 63 | 0 | 0.0 | 0.0 | 0.00 | 0.00 | 0.00 | 97 | 1012.4 |
| 20260903073059 | 63 | 0 | 0.0 | 0.0 | 0.00 | 0.00 | 0.00 | 97 | 1012.5 |
| 20260903071545 | 63 | 0 | 0.0 | 0.0 | 0.00 | 0.00 | 0.00 | 97 | 1012.5 |
| 20260903070057 | 63 | 0 | 0.0 | 0.0 | 0.00 | 0.00 | 0.00 | 97 | 1012.8 |
| 20260903064550 | 63 | 0 | 0.0 | 0.0 | 0.00 | 0.00 | 0.00 | 96 | 1012.8 |
| 20260903063047 | 63 | 0 | 0.0 | 0.0 | 0.00 | 0.00 | 0.00 | 96 | 1012.8 |
| 20260903061546 | 63 | 0 | 0.0 | 0.0 | 0.00 | 0.00 | 0.00 | 95 | 1012.9 |
| 20260903060052 | 64 | 0 | 0.0 | 0.0 | 0.00 | 0.00 | 0.00 | 96 | 1012.8 |
| 20260903054559 | 64 | 0 | 0.0 | 0.0 | 0.00 | 0.00 | 0.00 | 95 | 1012.5 |
| 20260903053056 | 64 | 0 | 0.0 | 0.0 | 0.00 | 0.00 | 0.00 | 95 | 1012.8 |
| 20260903051551 | 64 | 0 | 0.0 | 0.0 | 0.00 | 0.00 | 0.00 | 94 | 1012.9 |
| 20260903050046 | 64 | 0 | 0.0 | 0.0 | 0.00 | 0.00 | 0.00 | 94 | 1013.0 |
| 20260903044558 | 64 | 0 | 0.0 | 0.0 | 0.00 | 0.00 | 0.00 | 93 | 1012.7 |
| 20260903043056 | 65 | 0 | 0.0 | 2.0 | 0.00 | 0.00 | 0.00 | 93 | 1012.7 |
| 20260903041550 | 65 | 0 | 0.0 | 1.0 | 0.00 | 0.00 | 0.00 | 93 | 1012.4 |
| 20260903040059 | 65 | 0 | 0.0 | 3.0 | 0.00 | 0.00 | 0.00 | 94 | 1012.6 |
| 20260903034601 | 64 | 0 | 0.0 | 0.0 | 0.00 | 0.00 | 0.00 | 92 | 1012.9 |
| 20260903033055 | 64 | 0 | 0.0 | 0.0 | 0.00 | 0.00 | 0.00 | 92 | 1012.8 |
| 20260903031600 | 65 | 0 | 0.0 | 0.0 | 0.00 | 0.00 | 0.00 | 91 | 1012.7 |
| 20260903030053 | 65 | 0 | 0.0 | 0.0 | 0.00 | 0.00 | 0.00 | 90 | 1012.7 |
| 20260903024545 | 66 | 0 | 0.0 | 0.0 | 0.00 | 0.00 | 0.00 | 90 | 1012.4 |
| 20260903023056 | 67 | 0 | 0.0 | 0.0 | 0.00 | 0.00 | 0.00 | 88 | 1012.4 |
| 20260903021547 | 68 | 0 | 0.0 | 0.0 | 0.00 | 0.00 | 0.00 | 88 | 1012.2 |
| 20260903020043 | 68 | 0 | 0.0 | 0.0 | 0.00 | 0.00 | 0.00 | 88 | 1012.2 |
| 20260903014552 | 69 | 0 | 0.0 | 0.0 | 0.00 | 0.00 | 0.00 | 90 | 1012.2 |
| 20260903013055 | 70 | 0 | 0.0 | 0.0 | 0.00 | 0.00 | 0.00 | 88 | 1012.1 |
| 20260903011600 | 70 | 0 | 0.0 | 0.0 | 0.00 | 0.00 | 0.00 | 84 | 1012.0 |
| 20260903010100 | 70 | 0 | 0.0 | 0.0 | 0.00 | 0.00 | 0.00 | 84 | 1011.9 |
| 20260903004557 | 71 | 0 | 0.0 | 0.0 | 0.00 | 0.00 | 0.00 | 82 | 1011.9 |
| 20260903003052 | 71 | 128 | 1.0 | 3.0 | 0.00 | 0.00 | 0.00 | 80 | 1011.9 |
| 20260903001604 | 72 | 126 | 2.0 | 4.0 | 0.00 | 0.00 | 0.00 | 78 | 1011.8 |
| 20260903000054 | 73 | 134 | 4.0 | 7.0 | 0.00 | 0.00 | 0.00 | 75 | 1012.0 |
| 20260902234601 | 73 | 130 | 3.0 | 6.0 | 0.00 | 0.00 | 0.00 | 72 | 1011.8 |
| 20260902233102 | 74 | 127 | 2.0 | 8.0 | 0.00 | 0.00 | 0.00 | 71 | 1011.8 |
| 20260902231608 | 74 | 113 | 3.0 | 7.0 | 0.00 | 0.00 | 0.00 | 71 | 1011.8 |
| 20260902230054 | 74 | 130 | 4.0 | 8.0 | 0.00 | 0.00 | 0.00 | 72 | 1011.6 |